Theta_e
314 309 310 316 315 315 316 318 317 319 319 320 322 323 324 324 324 325 326 326 326 327 327 327 327 327 328 327 327 326 326 326 327 327 327 327 327 327 328 328 329 331 331 332 333 333 333 333 333 333 333 333 333 334 335 334 335 334 334 333 333 334 335 335 336 336 336 337 340 343 341 342 343 344 344 342 343 344 343 342 343 341 341 341 347
312 310 309 309 314 313 316 316 317 318 320 321 322 323 324 324 324 325 325 325 326 326 326 326 327 327 327 327 326 326 326 326 326 326 326 326 326 327 328 329 331 332 332 331 332 332 332 332 332 332 333 333 334 333 333 334 333 332 332 332 333 333 333 334 334 336 336 337 338 340 340 340 343 344 344 345 344 343 344 342 344 340 338 341 347
311 311 309 309 313 314 315 315 317 318 320 321 321 322 323 323 323 324 324 325 325 325 325 326 326 326 326 326 325 325 325 325 325 325 325 325 326 328 329 329 331 331 331 331 330 331 331 331 332 332 332 332 332 332 331 331 330 331 331 332 332 332 332 333 333 334 335 337 337 338 338 340 341 345 344 345 344 342 342 343 342 340 338 342 344
312 308 308 310 313 313 315 315 318 320 320 320 321 322 322 323 323 323 323 324 325 325 325 325 325 325 325 325 324 324 324 324 324 323 323 324 327 328 329 330 331 331 331 331 330 331 330 331 331 332 333 332 329 329 329 329 329 329 330 331 331 331 331 332 332 332 334 335 336 336 335 335 338 341 344 341 345 343 341 344 344 342 341 342 344
311 307 307 307 309 313 312 316 320 320 318 320 321 321 321 322 322 322 323 324 324 324 324 324 324 324 324 323 323 323 323 323 322 322 323 325 327 328 329 331 330 330 330 330 331 331 330 330 331 332 331 331 329 328 328 328 330 329 330 330 330 330 330 331 331 331 332 334 335 335 332 334 335 340 343 340 343 343 340 341 341 342 341 342 343
310 309 307 307 309 309 313 316 319 319 318 319 320 320 321 321 321 322 322 323 323 323 324 324 323 323 323 323 323 323 322 322 321 321 322 325 327 328 329 329 330 330 330 330 331 330 330 330 331 331 330 330 329 329 330 330 330 330 330 329 329 329 329 330 330 330 331 334 334 331 330 333 335 336 341 343 343 342 341 339 340 342 342 343 344
311 309 308 306 308 312 313 316 317 319 318 319 319 319 320 320 321 321 321 322 323 323 323 323 323 323 322 322 322 322 321 320 320 320 323 326 327 328 328 328 329 330 329 330 329 329 330 331 330 328 329 329 330 329 329 329 329 329 329 328 328 328 328 328 329 329 330 332 328 328 329 334 336 336 340 342 344 343 341 340 341 342 343 344 344
311 312 310 309 309 314 314 314 315 319 318 318 318 319 319 320 320 320 321 321 322 322 322 322 322 321 321 321 321 321 320 320 319 321 323 326 327 327 327 327 328 329 328 328 328 330 330 330 330 328 328 329 329 329 329 329 328 328 327 327 328 327 327 328 328 329 330 329 327 327 330 334 336 337 340 342 343 341 340 343 342 342 342 345 339
309 308 307 307 310 315 314 313 315 317 319 317 318 318 319 319 319 319 320 320 321 321 321 321 321 320 320 320 321 320 319 318 319 320 324 326 326 326 328 327 328 327 328 327 329 329 329 329 329 328 328 328 328 329 328 327 328 327 327 327 327 326 326 327 328 328 328 327 326 327 329 332 334 336 340 342 344 340 340 342 343 341 344 341 340
306 307 306 306 310 319 314 314 313 316 318 318 317 317 318 318 318 318 319 319 320 320 320 320 319 320 320 319 319 318 318 318 318 320 324 325 326 326 326 327 327 326 327 328 330 330 329 329 329 328 328 328 328 328 327 326 327 328 327 327 328 327 327 327 327 327 325 325 326 329 332 335 334 335 338 340 343 340 340 342 338 339 340 340 341
307 306 306 308 312 317 315 313 314 315 318 319 318 317 317 317 317 317 318 319 319 319 319 319 319 319 319 319 318 317 317 317 317 320 323 325 325 325 326 326 326 327 327 328 328 328 328 327 329 328 327 327 328 328 328 328 326 326 328 327 326 326 327 326 326 324 324 324 327 329 333 334 334 335 340 341 342 341 339 340 339 338 340 340 343
306 307 307 310 323 318 316 314 314 315 317 318 318 317 316 316 316 317 317 318 318 318 318 318 318 318 318 317 317 316 316 316 316 319 323 324 324 325 325 325 326 327 328 327 328 328 327 327 327 327 327 327 327 325 324 326 327 327 325 327 325 325 325 325 324 322 322 323 325 329 331 332 334 335 341 341 343 341 340 341 340 340 342 343 344
308 306 307 310 312 320 317 315 315 315 316 318 318 317 316 316 316 316 316 317 317 317 317 317 318 317 317 316 315 315 315 315 315 319 322 323 323 324 324 325 326 327 327 327 328 327 326 326 326 326 326 327 326 326 325 324 323 327 327 324 325 324 324 325 323 323 321 322 325 329 330 331 334 339 340 341 343 343 343 343 342 342 344 344 342
307 307 307 308 310 322 318 317 315 316 317 318 318 317 317 315 315 315 315 316 316 316 316 316 316 316 315 315 314 314 314 314 314 318 321 322 323 323 324 325 325 326 326 326 327 327 326 326 326 325 326 326 325 323 323 325 324 324 324 325 324 323 323 324 325 322 323 323 326 329 331 333 334 338 340 341 343 344 342 344 342 342 343 343 341
308 311 311 310 309 314 323 319 318 317 317 316 317 318 317 315 314 314 314 315 315 315 315 315 315 314 314 313 313 314 313 313 313 315 317 320 321 322 323 323 324 325 326 327 326 327 326 325 325 325 325 324 324 323 322 323 324 325 324 323 323 322 324 323 323 322 324 325 326 330 330 332 336 338 340 341 342 340 340 340 341 341 343 341 341
311 311 311 311 310 311 314 320 320 318 317 317 318 317 316 313 313 313 313 314 314 314 314 314 313 313 312 312 312 313 314 314 314 313 314 318 320 321 322 324 324 324 326 326 326 327 325 325 324 324 324 323 324 324 324 323 322 322 323 322 321 323 324 325 322 320 322 325 327 329 328 330 334 337 336 339 340 343 342 341 341 341 341 340 340
312 311 310 310 313 311 311 316 316 320 318 318 318 319 316 313 312 312 312 312 313 313 313 313 312 311 311 311 312 313 314 314 314 312 312 316 318 320 322 322 323 324 324 325 326 326 325 325 324 323 323 323 322 322 322 321 321 322 321 322 323 323 324 325 322 320 322 327 327 326 326 330 334 336 335 338 338 341 341 340 341 341 340 340 339
312 311 309 310 311 311 310 311 315 316 312 318 319 317 315 313 312 311 311 311 311 311 311 311 311 311 311 312 313 313 314 314 312 310 311 312 317 320 321 321 322 323 324 325 325 325 324 323 322 321 322 323 324 323 321 321 321 320 320 321 323 323 324 325 320 321 324 328 328 330 329 332 333 335 335 342 339 340 340 341 340 341 339 338 338
308 309 308 308 307 310 310 310 312 312 312 312 311 316 316 314 312 311 311 310 311 310 310 310 310 311 312 313 313 314 315 315 310 309 309 312 317 319 318 320 322 322 324 325 325 324 322 322 321 320 321 322 323 323 321 321 321 320 322 322 322 323 324 323 320 323 325 326 326 329 328 332 335 336 336 344 342 341 340 339 339 338 339 338 337
307 308 306 308 308 309 310 309 310 310 309 309 310 311 316 314 313 312 313 311 310 310 311 311 312 313 313 314 315 313 314 309 310 305 309 310 313 316 319 320 321 322 323 324 325 322 322 320 320 320 322 322 322 322 322 321 321 321 321 321 322 322 319 319 320 324 324 325 326 324 331 333 333 334 336 344 343 341 342 340 340 338 338 335 336
309 307 306 307 309 309 310 308 310 310 310 309 309 311 311 315 314 314 313 313 312 312 312 313 314 315 315 314 313 309 303 304 304 303 310 306 312 315 318 320 321 322 323 324 324 322 320 321 321 322 321 321 321 321 320 320 320 320 320 320 320 318 318 320 320 322 324 324 327 327 332 333 334 334 336 343 344 344 342 341 340 339 336 334 336
304 305 307 307 308 309 309 308 309 309 309 313 312 312 313 313 307 308 311 313 315 314 312 310 314 307 313 308 306 305 303 304 305 310 304 306 306 312 316 320 322 322 323 323 323 323 321 321 322 321 320 320 320 317 318 320 321 321 320 321 319 317 319 323 322 323 325 326 325 328 331 332 332 333 333 339 343 343 343 342 339 338 337 336 337
303 304 305 306 306 307 308 308 309 309 309 309 312 310 308 308 307 308 309 313 311 312 307 308 307 307 307 306 306 303 304 305 305 309 310 312 310 314 317 319 323 323 322 322 322 322 322 321 323 320 320 320 315 314 313 316 317 323 322 319 317 319 322 326 323 322 326 328 327 331 331 333 333 332 331 336 340 341 341 341 339 339 337 336 335
303 303 304 309 306 305 308 307 307 309 307 308 310 307 306 306 306 306 306 306 308 308 308 308 307 308 307 306 304 304 305 305 311 314 312 304 304 310 313 317 319 320 321 321 320 320 321 320 321 321 318 315 314 315 315 315 316 316 317 318 318 319 323 324 323 324 327 327 327 331 331 332 333 333 332 335 339 339 340 339 339 336 336 335 335
305 304 306 309 305 306 308 308 308 309 307 306 305 305 306 305 306 306 306 305 306 306 306 306 307 307 307 305 305 305 305 304 304 303 303 303 301 302 304 309 312 312 318 315 316 316 316 315 315 316 315 315 314 314 315 315 315 317 320 321 321 321 323 322 322 325 326 327 326 330 331 333 335 335 333 337 338 337 337 337 338 336 336 336 336
304 302 303 304 306 306 307 307 307 307 307 306 306 305 304 304 306 307 306 305 308 306 305 306 306 307 307 305 305 303 303 303 303 303 303 303 301 301 302 305 310 312 314 314 315 316 315 314 315 315 315 316 316 316 316 317 317 319 320 320 321 321 322 323 324 324 324 325 326 326 330 334 336 335 334 335 336 337 336 336 337 336 337 337 335
302 302 302 304 307 308 307 307 306 306 307 307 306 304 305 306 305 305 303 305 303 304 305 306 305 305 307 306 304 302 302 302 302 302 302 302 302 301 301 303 308 311 312 313 314 315 315 316 316 317 317 316 316 317 317 318 319 320 320 320 322 322 323 323 324 325 323 323 323 324 327 333 334 334 333 335 334 335 336 336 336 336 335 336 337
302 303 303 304 307 307 308 307 306 306 306 307 306 305 305 305 305 304 303 306 305 304 306 304 306 305 306 305 306 303 301 301 302 302 301 302 302 302 302 301 304 310 311 313 313 313 314 316 316 316 318 318 317 318 318 319 320 321 321 321 322 322 323 323 324 326 324 323 323 322 324 328 330 330 333 335 335 335 335 335 334 335 331 333 337
302 303 303 304 306 308 309 307 306 307 306 306 304 304 305 304 305 305 305 307 304 305 304 304 304 304 305 306 305 303 302 302 301 302 302 302 302 302 300 299 301 306 310 312 313 313 313 315 316 315 317 317 318 318 319 319 321 320 320 320 321 321 323 324 325 325 324 324 323 323 322 324 327 330 332 334 334 334 335 334 334 334 335 335 336
303 303 304 306 307 309 309 307 307 306 306 305 305 304 304 304 305 305 305 304 304 305 305 304 304 305 304 305 305 305 303 302 301 302 302 302 302 302 301 300 299 302 307 310 311 312 312 314 315 315 316 315 316 318 318 318 319 319 319 320 320 320 323 325 326 326 325 326 325 323 320 322 326 328 331 334 334 331 334 330 334 335 333 331 334
303 303 304 305 308 308 307 307 307 307 306 304 304 304 304 304 305 305 305 305 305 304 305 305 305 304 303 306 306 305 303 303 302 302 302 302 302 302 301 300 298 300 303 305 308 311 313 313 314 313 313 312 315 317 318 318 318 317 318 320 320 319 322 323 324 326 326 326 326 325 321 320 323 328 331 333 333 332 332 332 334 334 334 333 334
303 304 304 307 306 306 306 307 307 307 307 305 305 305 304 305 305 304 304 305 305 304 304 305 304 304 305 305 305 304 305 303 302 302 302 302 302 302 300 300 298 300 301 302 305 309 312 313 314 315 315 313 314 315 317 319 318 317 319 320 320 319 319 321 322 322 324 325 325 324 322 321 320 322 326 329 331 332 333 334 332 334 335 335 335
303 305 305 307 306 306 307 307 307 306 306 305 305 305 305 304 304 304 304 306 304 304 305 304 303 303 304 305 305 306 304 303 302 302 303 301 302 302 300 300 300 301 301 302 302 306 310 311 311 313 313 313 313 314 316 317 318 319 320 320 320 320 320 320 320 320 320 321 321 322 321 320 320 320 320 322 326 330 332 333 334 334 335 335 334
303 304 306 306 308 309 310 309 308 307 307 305 305 304 304 304 304 304 304 304 304 304 304 304 302 304 303 305 305 305 304 303 303 302 302 301 302 301 300 300 300 302 301 301 300 301 304 305 307 308 310 311 310 311 312 314 314 316 318 320 320 319 319 319 319 318 319 318 318 318 318 319 320 319 319 318 320 324 328 330 331 331 332 332 333
304 305 305 307 309 310 312 310 309 306 306 306 305 305 305 304 303 304 304 305 304 304 303 303 303 303 303 304 305 305 304 305 304 302 302 301 301 300 301 300 302 302 300 300 300 300 301 302 304 305 303 304 305 307 310 314 313 315 317 319 319 319 319 318 319 318 317 317 318 317 317 318 318 319 319 318 317 319 323 325 326 327 328 329 331
304 305 304 307 307 308 310 308 306 306 305 306 305 306 305 305 304 306 304 303 304 303 302 302 303 302 302 303 304 305 305 305 304 304 302 301 301 300 300 302 302 302 301 300 300 300 301 302 302 304 300 300 302 302 305 311 313 315 315 316 317 318 318 317 318 319 318 318 317 317 317 317 317 316 316 317 316 317 319 321 323 324 324 325 327
302 304 305 304 306 307 307 306 305 306 305 306 306 305 304 305 304 303 303 304 304 302 302 303 303 302 302 303 304 304 304 305 304 304 303 302 301 301 301 302 302 302 301 300 298 301 301 303 301 302 300 298 299 300 301 304 311 313 314 315 316 316 316 317 318 319 319 317 316 316 317 316 315 315 315 315 315 315 316 318 319 320 320 321 324
301 305 306 304 305 305 305 305 305 306 305 305 305 305 305 305 304 303 305 303 303 302 302 302 303 302 303 303 303 304 304 303 304 304 303 303 302 301 301 302 302 301 301 300 299 301 301 301 301 301 301 298 298 299 300 302 305 312 314 314 315 315 314 314 316 315 317 316 317 316 316 316 316 315 315 315 314 314 314 316 317 317 317 318 319
301 304 304 305 305 304 305 305 305 305 305 305 304 305 305 305 304 304 304 303 302 302 302 302 302 303 302 302 302 303 303 303 304 304 303 302 301 301 301 301 301 301 301 300 300 300 300 301 300 300 302 299 298 299 300 301 303 309 312 312 314 313 313 312 311 312 314 314 315 315 316 315 314 314 314 314 314 314 314 314 314 314 315 316 316
302 303 303 304 303 303 304 304 304 305 304 305 305 304 303 303 301 302 303 302 301 302 303 302 303 301 302 302 302 302 302 303 302 303 302 303 302 301 302 302 301 300 299 299 299 298 299 299 300 298 299 299 298 299 299 299 300 305 309 310 310 310 311 306 307 309 310 312 312 313 311 311 311 312 313 313 313 313 313 312 311 312 312 312 314
301 304 304 303 304 304 303 302 303 303 303 303 302 302 302 301 301 301 301 301 302 302 303 302 302 301 302 302 301 302 302 302 302 302 302 303 302 301 301 301 301 300 299 299 299 299 300 300 300 299 298 297 297 298 299 299 301 304 308 306 308 309 309 304 304 306 309 310 308 306 306 307 309 309 310 311 311 310 309 310 310 310 311 310 311
301 303 304 303 303 303 303 303 303 303 302 303 302 303 303 302 301 301 300 300 300 300 301 302 302 303 301 301 301 301 301 301 301 301 301 301 301 301 300 300 300 300 301 300 299 301 299 299 300 298 299 297 296 297 299 298 296 296 298 303 304 307 305 303 304 305 307 308 308 307 306 305 307 308 307 307 309 309 308 307 308 308 308 308 308
301 302 302 302 302 302 302 303 303 303 303 304 303 303 304 305 303 302 301 300 302 302 302 302 301 301 301 300 300 301 301 300 301 301 301 301 301 300 301 300 300 301 300 299 299 299 298 298 298 297 297 297 297 298 297 297 294 295 297 300 299 300 301 298 301 303 303 301 301 301 301 301 301 302 301 301 301 302 303 303 303 304 304 305 305
301 301 302 302 304 303 303 303 303 303 305 304 306 305 305 304 304 303 302 301 301 302 302 302 301 301 300 300 299 299 300 299 300 299 300 300 300 300 300 300 300 300 299 298 298 298 298 298 298 298 296 295 296 296 298 297 296 295 293 295 294 298 293 293 295 300 301 300 301 300 300 300 300 300 300 300 299 300 301 302 302 302 303 303 303
301 301 302 303 304 302 304 304 304 305 305 305 305 304 304 302 303 303 302 302 301 301 300 299 299 299 299 298 299 299 300 299 299 299 299 299 299 299 299 300 299 299 299 298 297 298 297 297 298 297 296 295 295 295 297 297 297 297 294 293 293 292 291 293 293 297 299 299 299 299 299 299 299 298 298 298 298 299 299 299 300 301 302 302 302
302 303 303 303 303 303 305 304 304 304 304 304 304 303 302 301 300 299 298 298 299 299 297 297 298 297 297 298 298 298 299 298 299 299 298 299 299 299 298 298 298 298 299 298 298 297 297 297 298 296 296 296 295 295 294 296 297 298 297 295 294 291 290 291 292 290 297 300 298 298 298 298 298 298 297 297 297 298 298 299 299 299 301 301 301
302 304 304 304 305 305 305 304 304 304 304 304 303 303 301 300 300 299 299 299 299 298 298 298 298 298 299 297 297 298 298 298 298 297 298 298 298 298 298 297 298 298 299 297 297 297 297 297 298 297 296 297 296 294 294 295 295 296 297 297 297 296 295 292 290 291 291 293 296 296 297 297 297 297 297 296 296 297 297 298 298 298 299 300 300
305 304 304 304 304 304 304 304 304 304 304 304 304 304 303 301 300 300 301 300 299 297 298 298 298 298 297 297 296 297 297 297 297 296 297 297 297 297 297 297 297 297 297 296 296 296 297 297 297 297 297 296 295 294 294 294 292 294 295 295 295 296 295 295 293 291 290 289 291 295 296 296 295 295 296 295 296 296 296 296 297 297 297 298 298
303 303 304 304 304 304 303 302 303 303 303 303 304 304 304 303 303 302 299 299 299 298 298 298 297 297 296 296 296 296 296 296 296 296 296 296 297 296 296 295 296 296 297 297 296 296 295 295 295 295 295 295 296 295 294 293 293 293 293 293 294 293 294 294 293 293 290 288 289 290 291 292 293 294 295 295 296 296 295 295 296 296 296 296 296
303 304 304 303 303 303 302 302 301 302 303 303 304 303 302 304 302 300 298 297 298 297 296 296 296 296 295 295 295 295 295 295 295 295 295 295 294 295 294 294 294 295 296 294 294 294 294 294 294 294 294 294 294 294 294 293 294 294 293 293 292 291 291 291 290 290 290 290 288 288 289 288 288 291 294 293 294 295 295 295 294 295 295 294 294
303 303 303 302 302 302 301 301 301 301 302 302 302 302 301 302 301 300 298 297 296 296 296 296 295 295 295 294 294 294 294 294 294 293 294 294 293 294 293 292 293 294 293 293 293 293 293 293 293 293 293 293 292 293 293 293 293 293 292 292 291 291 290 289 288 290 288 287 286 288 287 287 288 288 290 292 293 294 294 293 293 294 294 294 294
Wind_Speed
2 4 5 8 8 4 2 2 2 2 2 3 4 5 5 6 7 8 8 9 9 9 10 10 10 11 11 11 12 13 13 13 14 14 14 15 15 16 17 17 18 18 19 20 20 21 21 22 22 22 22 22 22 22 22 21 19 18 17 16 16 16 16 16 17 16 15 15 15 15 16 19 16 18 20 22 19 17 13 14 12 11 8 8 14
3 5 6 4 7 3 1 1 2 2 2 3 4 4 5 6 7 7 8 8 9 9 10 10 10 11 11 12 12 13 13 13 14 14 14 15 16 16 17 17 18 19 19 19 20 21 21 21 21 21 21 21 21 22 22 22 20 19 18 16 16 16 16 16 16 16 16 15 14 14 15 17 17 16 20 21 18 19 16 15 15 7 5 11 12
4 4 6 5 6 4 2 2 2 2 3 3 3 4 5 5 7 7 8 8 9 9 9 10 10 11 11 12 12 12 13 14 14 14 15 15 16 17 17 18 19 19 20 20 21 21 21 21 21 22 23 22 21 21 21 22 21 19 18 16 16 15 15 16 16 16 16 15 14 14 14 16 18 15 18 19 18 20 16 15 14 11 4 13 15
4 4 6 5 6 4 3 2 2 3 2 2 3 4 5 6 7 8 8 8 8 9 9 10 10 10 11 11 12 13 13 14 14 15 15 16 16 17 17 18 19 20 20 20 21 21 21 22 22 22 22 22 21 21 21 20 18 18 18 16 15 15 15 15 16 15 16 15 14 12 6 6 10 14 16 19 17 18 17 15 15 14 14 17 14
3 4 7 4 4 5 4 3 3 3 2 2 3 4 5 6 7 8 8 8 9 9 9 10 10 11 11 12 12 12 13 13 14 15 15 16 16 17 18 18 20 20 21 21 22 22 22 21 22 22 23 22 21 19 19 18 19 18 17 16 15 14 15 15 15 16 15 16 14 11 4 6 7 11 14 17 18 19 18 16 14 16 21 21 17
4 2 4 7 5 4 6 3 2 2 2 2 3 4 6 7 8 8 9 9 9 9 9 10 10 11 11 12 12 12 13 14 14 15 15 15 16 17 18 19 20 20 21 22 22 21 22 22 22 22 22 21 21 20 20 20 19 18 18 18 14 14 14 14 15 15 15 16 13 6 5 5 6 7 14 14 16 18 16 16 14 17 19 16 19
4 3 1 2 6 7 6 3 2 3 2 3 3 4 6 7 8 8 9 9 9 9 10 10 11 11 11 12 12 13 13 14 14 15 15 15 16 17 18 19 20 20 21 22 22 22 22 23 22 22 22 22 21 20 20 20 19 18 17 16 17 14 14 14 14 14 14 11 4 4 5 6 6 6 15 17 18 18 15 10 15 17 19 18 20
5 2 0 1 2 7 8 3 3 2 3 3 4 5 6 7 8 9 9 9 9 10 10 10 11 11 12 12 12 13 14 14 14 15 15 15 16 17 18 19 20 21 22 21 21 22 23 22 22 22 22 22 20 20 20 19 18 18 17 16 17 16 13 12 13 13 14 7 5 5 5 4 5 6 13 17 18 20 16 16 14 18 19 22 19
5 4 3 2 5 10 6 3 3 3 3 3 4 5 6 7 8 9 9 9 9 10 10 10 11 11 12 12 13 13 14 14 15 15 15 15 16 17 18 19 20 21 20 21 21 22 23 23 22 22 22 22 20 20 20 18 17 17 17 16 16 15 13 12 12 13 7 4 5 6 6 5 6 7 12 17 17 17 18 15 17 23 16 19 17
6 6 4 4 6 9 7 4 3 3 4 4 4 5 6 7 8 9 9 9 9 10 10 11 11 12 12 12 13 13 14 14 15 15 15 15 16 17 18 19 20 20 20 22 23 23 21 22 22 22 22 23 22 20 18 20 18 17 18 16 15 15 14 12 12 9 4 4 5 6 6 9 6 7 11 17 15 17 20 18 12 13 14 18 20
5 5 4 1 7 8 7 5 4 4 5 5 5 5 6 6 7 8 9 9 9 10 10 11 11 12 12 13 13 14 14 14 15 15 15 15 16 17 18 19 20 21 22 23 23 24 23 23 22 23 22 21 20 19 19 18 18 18 17 16 15 14 13 12 10 2 4 4 5 5 7 13 7 6 14 17 17 13 21 17 12 18 21 18 23
5 4 4 4 7 8 6 5 5 5 5 6 5 5 5 6 7 8 8 9 9 9 10 10 11 12 12 13 13 14 14 14 15 15 14 14 16 17 18 19 21 22 22 23 23 22 22 23 23 23 22 20 19 19 19 17 17 17 16 14 14 11 11 12 5 2 4 5 5 5 7 8 6 8 17 16 17 16 20 20 20 21 23 20 21
5 4 4 5 5 7 7 6 6 6 6 6 6 5 5 5 7 7 8 8 9 9 9 10 11 12 12 13 13 14 14 14 14 14 13 14 15 16 17 19 21 21 22 22 22 23 23 22 22 23 21 20 18 18 18 18 16 15 13 14 11 10 9 11 4 4 5 5 5 6 6 6 6 13 17 16 18 18 24 24 28 27 25 23 24
5 4 3 3 3 7 8 7 7 7 7 7 6 5 5 5 6 7 7 8 8 9 9 10 11 12 12 12 13 13 13 13 14 13 13 13 14 15 17 18 20 21 21 22 23 23 23 23 23 23 20 18 18 18 17 16 16 14 13 12 10 9 8 6 6 4 5 4 4 5 6 5 6 14 16 16 19 19 22 31 25 24 25 22 21
4 3 2 2 3 5 8 8 7 8 8 7 6 5 5 5 5 6 7 7 8 8 9 10 10 11 12 12 13 13 13 13 13 12 12 13 14 15 16 17 19 21 21 23 23 25 24 22 20 19 18 17 17 18 17 16 13 12 11 10 9 7 7 2 3 4 5 4 3 5 5 3 9 14 16 17 15 24 23 24 24 22 23 23 21
3 3 2 0 1 1 5 7 9 9 8 7 7 5 5 4 4 5 5 6 7 7 8 9 10 11 11 11 12 13 13 12 12 12 12 13 13 14 15 17 18 20 21 23 24 24 24 23 20 20 17 17 16 15 14 15 14 12 10 7 8 4 4 4 4 4 5 4 4 2 1 1 10 12 14 12 21 29 28 23 21 22 24 23 23
4 3 2 2 1 1 3 5 6 8 8 8 7 7 5 3 3 3 4 5 6 7 8 8 9 10 10 11 12 13 12 11 11 12 12 12 13 14 15 16 19 20 20 23 23 23 23 21 21 19 17 16 17 17 15 14 11 10 7 5 2 1 4 6 3 5 6 4 4 2 0 1 9 12 4 14 12 22 25 24 22 20 20 21 18
2 3 4 3 3 4 4 2 5 4 4 6 8 8 6 5 3 3 3 4 5 6 7 8 8 9 11 11 12 13 13 12 11 12 13 14 14 14 15 16 17 19 19 21 22 22 20 19 18 16 15 17 15 15 16 15 11 8 5 1 2 3 5 5 3 6 5 3 3 2 4 7 12 10 7 27 16 14 16 16 18 16 16 18 17
4 5 4 5 5 5 4 3 4 5 6 6 5 5 8 5 4 3 3 4 5 6 6 7 8 9 11 11 12 13 12 12 10 10 13 15 13 13 14 15 17 16 19 21 21 20 19 17 16 15 15 15 15 15 16 15 12 7 1 2 2 3 5 4 4 4 4 4 2 3 4 10 10 9 11 25 22 14 15 15 15 14 11 13 14
5 5 4 5 4 3 3 3 4 3 3 2 4 6 6 7 5 5 4 4 5 6 6 7 8 9 11 11 12 10 9 5 10 5 10 14 13 12 12 14 16 16 15 19 20 19 17 15 15 16 15 14 15 14 12 15 11 11 10 8 6 6 4 4 2 3 3 4 3 1 5 3 3 5 11 26 26 18 19 16 17 14 11 12 14
5 6 5 5 5 4 3 2 3 3 1 1 0 4 5 6 5 6 6 6 6 6 7 7 7 8 7 7 9 7 2 4 4 3 8 6 10 12 12 13 15 15 14 14 17 18 15 14 15 15 14 13 12 12 3 8 11 9 8 6 7 4 5 1 1 3 4 2 2 3 2 4 6 5 8 22 27 22 20 20 16 15 15 13 14
6 6 6 5 5 5 4 3 3 3 2 3 2 1 3 4 3 3 4 5 6 6 5 4 6 2 5 5 6 3 4 4 5 4 5 7 8 12 12 12 13 13 13 11 14 16 15 16 17 16 16 14 14 6 2 5 9 8 10 9 5 5 2 3 2 3 5 2 2 2 5 6 7 1 6 7 21 23 22 20 17 17 17 14 15
5 6 7 6 5 5 5 5 3 4 3 3 3 3 4 4 5 4 3 5 4 4 4 3 2 2 2 4 5 4 4 4 4 4 4 9 8 11 11 11 9 9 13 7 11 14 16 16 19 16 15 13 9 7 5 3 4 8 7 6 5 1 4 3 3 4 3 4 1 2 5 8 5 1 0 5 12 18 19 18 18 17 17 15 14
4 6 5 5 7 4 5 4 5 4 4 4 4 5 5 4 3 2 3 2 5 3 3 4 4 1 2 4 4 5 4 4 5 5 6 5 6 9 12 11 9 8 13 4 7 9 14 13 15 17 10 7 6 7 8 6 7 7 5 4 3 5 2 1 1 5 4 3 2 3 6 13 6 4 2 6 12 12 15 17 16 16 16 17 15
4 4 7 5 5 4 5 4 4 4 3 2 3 3 2 0 2 2 1 2 1 0 2 2 3 3 2 3 4 4 4 4 3 3 4 6 5 6 7 7 5 5 9 3 4 5 6 7 6 7 6 8 8 8 9 9 8 6 7 7 7 3 3 1 2 4 4 4 5 6 10 12 11 11 2 9 11 13 13 15 15 15 16 16 16
4 2 3 5 5 5 5 5 5 4 4 4 4 3 1 1 1 0 0 3 0 0 3 2 1 0 0 3 3 4 5 4 3 4 4 4 5 6 6 6 6 5 6 4 4 3 5 5 6 5 5 5 6 7 7 7 8 8 8 7 6 4 5 1 1 3 3 5 5 9 6 10 14 12 8 12 8 9 14 15 14 12 13 12 12
5 4 4 3 6 5 4 5 5 4 4 3 1 3 3 3 1 2 1 2 2 3 2 1 1 3 2 1 4 5 5 4 4 4 4 4 6 5 6 6 6 6 7 4 5 2 2 5 4 5 5 4 5 6 7 7 7 7 7 7 7 5 3 2 3 6 5 5 6 12 14 9 11 11 10 11 5 4 11 10 11 14 13 11 11
5 5 5 5 7 6 5 4 5 5 4 2 1 3 3 3 1 1 2 0 0 3 0 1 3 5 1 1 1 3 4 4 4 4 4 4 5 4 6 6 7 6 6 6 6 4 3 4 5 3 5 5 5 5 6 6 7 6 7 6 7 7 6 4 5 6 5 5 6 11 13 14 11 10 11 11 8 9 9 9 7 13 15 14 11
4 4 4 5 6 7 6 5 4 5 5 4 4 4 4 3 3 1 1 3 1 1 2 2 4 1 1 1 2 3 4 4 3 4 4 4 5 5 5 6 6 7 6 6 7 6 3 5 4 4 3 4 4 4 4 6 5 6 6 6 7 7 6 5 5 6 6 6 6 9 14 14 13 14 13 13 8 5 4 4 11 10 13 13 12
5 5 5 5 5 6 6 6 5 5 5 6 5 4 3 4 2 2 1 1 3 1 1 4 1 1 2 3 3 2 3 4 3 3 4 5 4 4 5 5 6 6 7 6 7 7 5 6 4 3 4 2 3 2 3 3 4 6 6 7 7 6 6 7 7 6 5 6 6 8 15 14 14 14 13 13 9 5 2 5 9 15 13 8 9
5 5 5 6 6 6 6 6 5 5 4 5 4 3 3 1 3 1 3 2 1 1 3 2 0 1 3 2 2 3 3 4 3 3 3 4 3 4 5 5 6 6 6 7 7 7 5 5 6 5 4 2 1 1 1 4 5 2 3 6 6 6 6 8 7 7 6 7 7 7 11 16 14 15 15 16 14 3 3 5 7 13 14 10 7
7 6 5 6 7 6 7 6 5 5 5 4 3 2 3 2 2 2 2 2 1 2 3 1 0 1 2 1 3 3 3 3 3 4 4 4 4 3 4 5 6 7 7 6 8 7 7 4 6 7 4 2 2 0 0 3 4 3 5 6 5 7 7 7 8 7 7 7 8 7 7 10 15 15 16 17 15 15 13 12 9 9 9 7 6
5 7 5 7 7 6 6 6 5 5 4 4 4 3 4 3 3 2 2 1 2 3 1 0 1 1 2 2 1 2 3 3 4 4 4 4 4 2 4 4 6 6 6 6 8 7 7 6 7 7 7 6 6 4 3 4 4 5 7 7 7 8 8 8 8 7 7 8 7 7 6 6 8 14 15 15 16 19 19 19 16 15 15 14 10
7 5 7 7 5 4 5 5 5 6 4 4 4 4 3 4 4 4 4 3 4 1 2 0 1 1 0 3 1 2 2 3 3 4 4 4 4 3 4 5 6 6 5 6 7 6 7 7 6 6 7 6 6 6 4 6 5 5 6 6 6 6 7 8 7 7 8 8 7 7 6 7 7 5 7 15 16 16 17 18 18 18 18 17 17
6 7 8 6 6 5 5 5 5 5 5 4 3 1 4 1 3 2 4 1 0 1 0 2 2 1 2 3 3 1 2 3 3 3 5 4 4 5 4 5 6 5 5 6 6 7 6 7 6 6 7 7 7 7 5 4 4 6 5 5 6 6 7 6 6 6 7 7 7 7 7 7 6 5 6 6 9 14 15 16 16 16 17 17 17
7 7 6 7 6 5 5 5 5 5 5 4 3 2 3 1 1 3 5 1 1 1 3 2 1 3 4 4 4 4 1 2 3 3 4 4 4 4 3 5 5 5 5 5 5 7 7 6 7 5 7 7 7 8 7 5 4 5 5 5 5 6 5 5 5 6 5 6 7 6 7 7 7 7 6 6 6 9 14 14 15 15 15 15 15
6 8 7 7 6 6 6 6 6 6 5 5 4 4 4 3 2 3 4 1 0 3 3 2 3 4 4 5 4 4 2 3 3 3 4 2 2 4 3 4 5 4 5 6 5 6 6 6 6 6 4 6 7 6 7 7 6 4 4 5 5 5 5 5 6 4 5 7 6 6 7 7 6 7 7 8 7 7 10 14 14 15 15 15 15
6 8 8 9 8 7 6 6 5 5 5 5 4 3 3 4 4 4 3 3 1 2 3 4 4 5 5 3 4 4 4 4 4 4 4 4 1 3 3 5 5 4 5 6 6 6 6 5 6 6 5 6 6 6 7 7 6 3 5 6 6 6 6 5 4 6 6 6 5 6 6 6 6 7 7 7 7 7 6 9 11 11 12 13 15
5 7 8 6 7 6 5 6 6 5 5 5 5 4 4 4 4 4 3 3 2 3 4 5 5 5 3 3 3 4 4 4 4 4 4 4 4 3 2 4 4 4 5 5 6 6 6 6 6 5 5 5 5 5 4 6 5 3 5 5 5 4 4 5 6 6 6 6 6 6 5 6 6 7 8 7 6 6 6 6 6 6 8 12 12
6 6 8 7 8 6 5 5 5 5 5 5 5 4 4 4 5 4 3 3 4 4 4 5 5 4 3 3 3 4 3 3 4 4 4 4 4 2 2 3 4 3 4 5 6 6 6 6 7 4 5 5 6 6 6 6 4 1 6 6 4 3 4 6 7 7 7 6 6 6 7 6 7 7 6 5 5 5 6 6 5 6 5 7 9
6 6 7 7 8 9 8 7 6 6 6 6 5 5 5 4 3 5 5 4 5 4 4 4 5 3 3 3 3 3 3 4 4 4 4 4 4 4 3 3 4 3 3 4 4 5 5 5 6 4 4 6 8 9 9 4 6 4 5 4 4 2 4 6 7 7 7 6 6 6 5 6 6 6 5 5 5 5 5 5 5 5 5 5 6
6 7 7 8 8 7 8 7 6 6 6 7 7 6 5 6 6 5 4 4 6 6 5 4 4 3 3 3 3 4 3 4 4 4 4 4 4 5 4 3 4 4 1 4 5 4 6 6 5 6 3 4 5 7 9 6 5 2 1 2 3 3 4 6 6 6 6 5 5 6 6 6 6 5 6 5 6 7 7 7 6 7 6 6 6
9 9 7 7 7 7 7 7 7 7 6 6 8 4 2 2 2 3 7 5 4 5 5 4 4 4 4 4 3 3 4 3 4 4 3 4 4 4 4 5 4 4 4 5 5 5 5 6 5 5 6 3 3 5 7 7 2 3 3 2 2 2 3 6 4 6 7 7 7 8 7 8 9 8 8 9 8 8 7 8 7 7 7 7 6
7 7 8 8 7 7 6 7 7 6 5 2 4 5 6 5 6 6 6 5 4 5 5 4 4 4 4 3 3 3 3 3 4 4 4 4 4 4 4 4 5 5 5 5 5 5 5 6 6 6 4 4 4 5 6 7 7 5 4 0 1 4 2 5 3 3 6 8 8 8 7 8 9 9 8 9 8 8 8 8 8 7 7 7 7
8 8 8 8 6 7 7 7 7 6 5 5 6 6 6 5 6 7 7 6 4 4 4 4 4 4 4 4 3 3 3 4 4 4 4 4 4 4 4 4 4 5 5 6 5 5 4 4 5 4 5 3 4 3 5 7 7 6 2 3 3 5 0 0 2 2 3 7 6 7 8 8 8 9 9 8 7 7 7 7 7 6 6 8 8
8 7 7 7 7 6 6 6 5 5 6 5 6 7 6 8 7 7 6 4 5 5 6 6 4 4 4 3 3 3 4 4 4 4 4 4 4 4 4 4 4 6 6 6 5 4 5 5 5 4 5 5 2 6 4 4 6 6 7 5 2 3 0 3 3 1 3 7 6 8 8 7 8 9 7 7 7 7 7 7 7 8 8 8 8
6 6 6 6 6 6 6 6 6 5 5 5 6 6 6 6 7 7 7 8 7 3 3 5 6 5 5 4 3 3 4 4 4 4 4 4 4 4 4 4 4 5 5 6 6 5 5 4 5 5 6 6 5 6 7 5 5 6 5 5 7 4 3 4 2 1 2 3 5 8 8 8 7 9 7 6 5 6 6 7 8 8 9 8 8
7 7 6 6 7 7 6 6 5 5 5 5 6 6 7 7 6 6 7 6 7 6 5 5 5 4 5 4 4 4 4 4 4 4 4 4 4 4 4 4 5 4 5 6 6 5 5 5 5 5 5 6 5 6 6 6 5 3 5 6 4 5 6 6 5 2 1 0 4 5 7 8 5 7 7 6 5 6 7 7 7 7 8 8 8
8 8 7 6 6 6 6 6 6 6 5 6 6 5 5 7 8 6 6 4 7 6 6 6 6 5 4 4 5 4 4 4 3 4 4 4 4 4 4 4 4 4 4 6 5 5 5 5 6 6 6 6 6 4 6 6 6 5 4 5 5 5 6 6 6 5 4 2 4 6 5 5 4 7 7 6 6 7 8 7 8 7 8 9 9
7 7 6 6 6 6 7 7 6 6 6 6 6 5 5 6 7 6 8 7 7 6 6 6 5 4 5 4 4 5 5 4 4 4 4 4 4 4 5 4 4 4 4 5 5 5 5 5 5 5 5 6 6 6 6 6 6 6 6 5 6 4 5 5 5 5 4 4 2 2 4 4 5 4 5 5 4 6 8 8 8 8 9 9 8
6 7 7 7 6 7 7 7 7 6 6 6 5 5 5 5 6 7 8 9 8 8 8 6 6 5 5 4 4 5 4 4 4 4 4 4 4 4 4 4 4 4 5 5 4 5 5 5 5 6 7 7 6 7 7 6 6 7 7 6 6 6 5 4 3 4 3 2 2 3 2 3 1 2 4 5 3 6 7 7 7 8 8 9 8
Wind_Direction
235 110 115 119 106 105 89 1 333 310 323 319 319 320 335 331 332 332 335 340 341 339 338 338 336 332 333 332 330 329 329 328 325 324 323 321 320 319 318 317 312 312 316 318 316 317 317 315 312 312 309 307 305 303 303 300 300 300 302 303 301 299 298 297 298 300 300 303 306 305 301 295 285 261 244 244 245 245 229 217 210 213 201 212 189
155 100 119 113 116 119 128 359 285 289 309 302 310 323 328 331 329 329 336 340 342 341 338 337 337 335 333 332 332 330 328 325 324 324 324 324 322 321 320 316 315 318 318 318 316 315 314 313 311 309 307 306 303 302 301 299 296 297 298 300 299 296 296 298 297 300 304 303 302 302 305 299 294 267 253 248 238 235 229 217 216 195 209 231 188
115 119 110 119 126 138 146 236 273 287 288 299 312 323 327 329 330 333 337 342 344 340 339 338 337 336 335 332 331 331 328 326 326 326 326 326 325 323 321 320 322 321 320 317 314 313 314 311 309 308 308 308 308 304 299 297 297 297 296 296 295 294 294 295 296 297 302 306 305 303 306 308 306 282 256 253 246 237 228 208 218 184 215 220 190
139 132 115 129 135 151 182 212 249 285 291 307 317 326 328 331 335 336 339 342 343 342 340 340 339 337 335 334 332 331 329 328 328 329 329 328 325 323 324 325 322 322 319 319 318 317 315 311 309 309 309 308 304 301 297 295 292 292 292 292 293 294 291 291 294 296 301 305 304 301 297 298 298 288 263 245 245 242 234 218 210 178 190 223 189
138 112 125 145 156 166 170 195 258 286 328 314 330 329 333 336 338 340 340 342 345 343 343 341 341 340 338 335 333 331 330 331 331 331 330 329 325 325 326 325 324 323 321 319 319 317 315 313 311 310 309 306 304 299 294 297 304 297 291 286 288 291 291 290 292 294 301 305 305 300 284 290 280 275 269 245 240 239 232 229 214 185 191 215 164
122 123 156 164 154 159 163 201 241 297 335 338 333 335 334 338 340 342 343 344 344 344 343 342 343 341 339 336 333 333 334 333 333 332 331 329 326 328 327 326 325 323 322 322 320 318 315 313 311 311 311 306 301 297 295 298 295 293 293 291 286 288 289 289 290 291 298 303 306 297 289 279 267 266 264 249 241 233 230 215 211 209 198 195 171
135 126 189 147 140 148 158 176 239 296 344 340 340 338 335 339 344 345 344 345 345 345 343 344 343 343 340 336 335 335 336 336 335 333 333 329 328 329 328 327 326 325 324 324 322 319 316 316 315 313 312 306 298 300 299 296 293 290 289 290 287 283 285 287 288 290 296 304 289 286 278 274 260 248 257 246 239 230 210 206 193 207 203 171 179
96 100 272 131 124 142 141 175 247 266 320 333 341 340 338 343 346 346 346 346 345 345 345 344 344 343 340 338 337 338 337 337 336 334 333 330 331 330 329 330 328 328 327 325 323 319 318 318 316 314 311 305 304 306 301 299 294 290 287 287 289 281 279 283 286 289 296 298 285 275 276 275 272 261 254 245 242 234 187 184 190 206 214 179 155
131 148 197 203 121 141 142 171 231 276 295 323 329 335 339 347 348 347 346 346 346 345 346 345 344 343 343 341 339 337 338 338 336 335 334 331 333 332 332 331 331 331 328 323 321 321 319 317 317 315 312 306 308 308 306 301 300 294 290 289 287 284 277 281 286 290 300 281 285 279 275 282 280 268 263 257 247 232 193 185 191 204 179 144 142
161 149 189 199 134 134 149 176 227 270 275 294 323 327 335 346 347 346 345 347 347 346 346 344 344 344 342 341 340 338 338 337 337 336 334 333 334 334 334 334 333 330 326 326 324 326 324 320 318 315 315 312 312 311 308 305 301 296 292 289 287 286 290 285 285 288 274 274 268 272 274 282 272 265 262 255 251 234 195 187 189 190 140 142 136
143 153 138 118 126 141 160 181 229 256 272 282 298 323 330 339 344 345 345 346 348 347 345 344 346 344 343 342 340 337 336 337 337 337 335 334 336 335 335 335 333 329 328 328 327 329 328 326 321 315 317 314 312 310 311 308 301 299 293 291 285 282 287 289 291 298 269 266 273 276 280 284 280 267 262 253 238 232 194 175 189 148 136 141 132
138 140 143 115 135 145 157 190 233 245 268 283 291 307 325 330 336 343 345 346 346 348 344 343 343 345 343 342 339 335 336 336 338 338 336 335 337 336 336 335 333 333 333 329 327 330 330 327 322 319 323 320 318 316 313 311 306 300 296 292 295 285 282 281 291 276 275 271 270 274 281 281 275 267 259 245 232 217 185 175 163 144 140 139 135
133 150 151 132 152 161 171 200 225 243 259 272 281 287 307 319 330 341 344 346 345 345 345 343 343 343 343 340 335 333 334 337 338 338 338 335 335 335 335 335 335 335 334 332 333 333 331 329 328 329 326 327 323 318 317 312 308 308 304 298 297 286 289 295 297 279 270 267 267 270 269 275 263 256 259 246 228 213 189 160 159 151 145 144 137
138 149 135 149 136 157 178 200 218 236 245 256 266 280 290 310 326 339 341 342 343 343 341 342 342 342 341 338 333 331 334 337 338 338 336 333 332 329 330 333 336 337 335 335 334 332 330 333 333 333 333 331 324 316 315 314 315 310 303 302 308 291 288 296 292 273 265 269 274 270 273 269 250 254 255 255 229 215 180 147 146 134 135 138 145
139 120 118 131 138 164 185 196 215 228 236 241 258 265 273 297 321 331 337 340 339 339 339 339 340 341 337 334 331 330 333 335 338 337 334 330 328 325 322 330 334 337 337 335 334 332 337 336 338 341 339 338 334 329 324 316 309 309 303 308 310 305 302 298 285 283 279 273 271 274 287 283 260 257 258 257 215 152 153 138 137 142 139 141 144
96 123 121 141 170 157 170 197 211 219 226 231 234 243 263 276 304 321 333 335 334 334 333 337 336 335 332 329 329 329 331 332 330 334 332 326 324 319 318 328 334 337 336 335 337 340 346 347 351 351 351 348 342 336 332 324 317 312 307 297 293 307 319 290 267 278 275 284 284 248 350 11 282 265 275 251 185 153 148 141 146 143 140 147 146
130 150 154 185 182 232 218 176 192 209 214 217 222 232 232 244 270 312 321 329 328 325 326 329 331 327 324 325 327 324 324 325 325 326 327 322 320 318 319 327 337 341 341 340 344 349 351 354 353 353 356 353 350 347 340 333 327 318 306 303 357 302 263 256 271 276 277 283 289 230 121 300 261 273 276 135 160 148 139 139 138 139 140 134 135
156 160 177 197 209 214 225 154 165 179 193 207 218 215 220 226 245 270 301 317 314 314 316 319 320 318 313 314 319 317 314 316 320 327 330 329 324 317 323 324 332 346 345 347 348 356 353 356 356 358 358 351 353 347 346 348 344 335 308 93 150 253 263 283 286 280 284 291 288 166 198 186 230 239 204 108 116 104 110 119 125 127 131 132 142
179 186 195 194 211 195 193 185 175 180 185 187 197 204 204 206 210 236 270 288 297 298 300 305 307 305 300 301 306 304 308 303 330 332 340 332 324 322 317 314 323 335 346 346 356 359 356 3 4 3 359 352 349 345 347 352 351 357 12 157 227 266 312 311 283 285 311 336 263 190 192 211 218 235 223 115 111 123 124 132 127 119 120 125 119
192 197 210 194 192 197 185 184 180 189 176 193 147 165 191 193 205 226 231 250 269 273 280 287 287 286 287 288 288 296 292 304 331 343 333 327 318 311 305 310 317 324 330 350 1 0 359 7 8 3 350 347 341 344 348 344 337 338 341 337 330 341 297 270 319 317 313 279 312 312 248 212 231 244 202 123 125 141 132 127 125 139 134 133 128
183 192 202 195 175 185 175 198 201 163 170 130 124 138 169 186 217 229 224 230 236 248 258 269 279 274 274 281 293 295 358 345 311 327 327 308 303 304 303 302 309 317 318 359 0 359 357 356 0 357 351 343 330 341 8 316 312 314 312 314 302 288 269 300 4 319 300 297 350 321 269 183 220 210 179 128 134 143 139 138 146 142 132 133 117
192 189 187 196 161 174 178 202 179 151 162 151 150 146 156 195 226 205 210 224 231 233 253 237 250 274 318 307 295 304 8 318 297 324 318 309 306 300 295 289 299 310 323 11 7 356 348 351 353 2 11 359 336 317 268 246 293 297 291 284 289 269 8 23 356 336 282 357 36 262 165 204 248 289 347 145 139 144 143 142 144 133 129 128 119
184 185 186 176 163 168 167 179 207 158 157 178 158 190 188 195 202 214 216 218 213 200 227 248 244 275 304 302 297 335 321 296 290 332 324 315 317 320 316 312 318 332 343 7 10 355 351 347 345 2 1 2 353 329 309 279 260 260 261 262 254 40 26 15 352 319 325 32 40 242 185 173 186 10 183 226 145 138 136 135 140 141 134 129 121
170 173 157 143 146 169 166 173 177 152 166 200 184 198 203 191 209 183 216 197 203 207 220 210 222 212 271 283 307 309 292 291 305 348 335 321 320 327 326 322 343 337 339 353 2 353 351 347 344 351 350 349 354 353 342 342 329 339 352 321 284 118 82 54 314 313 10 2 336 246 167 141 134 79 160 221 137 129 128 128 127 141 131 128 125
172 128 114 146 159 172 149 167 147 150 186 228 157 215 131 81 229 189 197 234 224 184 288 246 227 196 232 290 295 290 300 305 319 350 333 320 333 335 328 324 332 335 327 350 1 345 349 343 341 347 352 350 355 354 352 346 344 17 357 346 2 61 121 97 55 293 24 15 6 75 115 113 113 90 45 139 125 130 131 134 122 126 121 122 116
97 105 168 174 169 162 156 168 152 164 177 212 193 134 104 245 210 200 15 290 168 190 241 242 271 165 115 278 294 323 316 318 345 350 334 331 344 334 326 321 330 331 326 347 346 349 354 344 348 350 349 349 358 356 348 347 350 5 359 346 340 359 46 62 155 41 37 30 30 17 56 113 101 98 53 77 90 122 142 140 119 112 109 103 114
152 184 190 175 143 137 170 150 158 173 175 217 154 139 172 200 156 108 39 301 28 307 275 309 10 305 233 250 1 319 318 330 349 351 335 347 340 330 327 324 327 333 329 349 334 313 344 338 350 346 339 357 359 359 351 349 355 6 352 346 352 345 32 343 48 59 42 42 34 31 22 45 107 94 76 66 69 106 135 125 125 140 131 136 132
155 182 181 156 151 157 176 163 165 160 167 196 181 188 204 142 106 145 217 183 301 273 283 21 298 272 196 62 315 324 320 334 346 355 336 353 327 332 329 333 331 335 330 337 322 321 340 332 344 340 338 350 2 14 359 356 348 1 344 348 357 360 351 15 47 65 60 53 39 25 20 31 72 82 69 69 66 107 121 132 141 155 149 146 134
167 179 187 158 159 156 156 173 178 161 165 166 201 228 176 147 165 207 186 134 250 248 62 297 275 317 350 99 32 333 330 330 346 354 342 343 327 346 339 342 333 332 334 332 325 320 347 334 334 330 335 333 355 14 21 6 358 2 354 2 9 360 350 15 57 61 67 64 54 34 41 33 32 43 37 46 63 78 122 151 161 155 151 145 136
188 186 189 159 142 141 156 173 178 174 171 157 199 207 159 161 177 185 120 182 230 95 271 265 274 294 43 43 349 312 305 318 340 345 357 332 329 349 341 344 335 339 336 329 327 320 335 349 335 332 335 340 350 330 33 44 28 11 6 12 9 348 8 38 45 57 61 72 59 45 48 47 39 38 25 22 38 34 77 197 198 155 140 141 139
176 199 190 157 151 150 169 171 174 174 155 160 210 186 145 149 155 158 168 201 124 291 257 251 313 71 71 43 323 325 343 325 340 346 347 320 328 349 340 342 347 343 327 322 323 319 329 9 336 325 327 331 340 287 65 57 60 36 11 30 9 339 19 38 44 57 56 60 62 54 48 48 49 56 49 47 48 41 112 76 113 141 141 151 118
170 196 184 145 148 166 169 166 168 158 149 175 200 139 146 171 139 206 179 140 64 263 271 252 350 108 105 71 348 348 322 310 3 343 338 316 329 345 349 355 350 332 320 321 330 319 338 354 351 330 301 340 346 257 276 76 67 44 34 38 11 24 31 33 49 48 48 50 58 54 48 51 49 53 54 59 69 61 51 56 77 91 107 97 84
184 180 164 141 157 171 154 158 151 152 157 188 172 188 175 132 148 205 136 114 214 242 276 283 59 332 122 108 345 327 343 351 359 343 326 321 326 353 11 1 345 328 321 334 331 331 350 347 2 344 346 9 6 359 14 19 59 62 49 31 29 27 33 37 37 36 41 47 50 53 52 56 54 50 51 52 49 55 56 59 62 67 66 65 82
176 157 133 147 157 153 146 149 148 152 177 192 183 179 159 166 179 176 128 165 228 209 206 106 112 319 98 122 40 6 339 5 6 330 327 330 337 2 37 7 335 324 328 335 343 345 352 345 357 354 348 7 4 357 22 21 13 45 68 58 47 44 37 43 44 41 41 38 38 40 37 43 45 51 53 52 46 47 52 53 52 50 51 53 55
143 136 153 154 141 147 142 146 151 158 174 192 158 163 143 166 164 151 129 146 253 210 130 58 44 346 52 89 50 12 348 17 342 344 324 336 354 358 23 6 329 322 336 336 359 350 352 346 350 4 356 356 3 353 7 45 31 29 36 60 70 57 57 48 46 56 53 51 47 40 40 39 36 39 40 52 51 48 51 54 54 51 48 44 45
142 154 154 144 151 154 146 145 157 155 166 173 158 172 133 193 115 95 116 136 224 100 76 73 58 28 34 55 36 345 352 19 346 352 321 346 359 5 356 8 330 329 347 345 11 2 349 349 346 3 14 359 5 356 355 6 40 48 27 31 59 67 68 64 63 64 68 60 50 47 49 47 38 37 38 44 49 44 44 49 53 52 49 46 45
154 150 150 150 150 157 155 149 167 155 169 169 166 171 161 162 132 129 120 179 151 97 69 74 52 47 34 43 9 329 10 16 352 347 327 336 338 12 344 2 334 347 5 351 17 4 354 347 343 348 42 15 2 360 353 353 354 64 61 34 30 50 57 65 62 69 66 66 61 49 47 45 45 42 42 42 38 38 37 40 44 47 45 45 43
163 151 154 157 157 158 163 153 165 156 162 157 163 161 154 138 123 144 151 110 69 105 111 73 58 59 41 14 2 333 28 356 1 338 335 319 348 49 351 357 344 3 15 3 2 5 351 353 342 349 17 34 14 4 356 340 332 17 68 57 38 32 27 44 64 78 73 71 69 66 60 56 42 42 45 42 38 35 35 35 40 41 45 45 43
160 151 152 150 138 152 153 152 155 158 153 153 165 169 159 158 137 128 127 136 96 69 82 76 75 65 29 357 11 355 19 358 359 340 336 344 346 46 356 3 348 13 32 13 357 359 357 347 350 343 359 39 25 359 350 327 325 351 69 63 64 45 24 24 35 57 63 70 72 68 64 57 57 51 52 54 52 50 47 44 41 43 41 43 40
154 147 152 147 145 150 145 144 150 155 151 144 151 149 147 165 144 153 165 158 134 98 72 89 74 60 17 17 10 17 15 355 12 342 4 348 334 1 21 20 342 36 35 23 5 0 358 349 345 334 15 1 11 8 359 350 322 17 83 51 52 73 43 54 49 47 42 42 44 46 55 51 52 49 53 56 56 55 51 47 44 46 50 50 53
155 150 151 152 152 156 148 163 168 164 157 158 167 172 173 186 166 174 174 164 140 126 97 83 76 66 29 24 20 21 12 20 8 2 6 355 357 348 34 18 5 14 49 45 22 7 358 351 340 336 34 29 9 2 5 5 39 52 54 53 46 18 65 73 68 71 66 56 49 59 51 54 52 53 50 60 63 63 59 53 50 49 42 36 30
165 159 161 160 154 156 156 164 161 167 170 175 179 190 184 178 170 182 154 139 143 136 121 103 116 88 57 35 27 14 24 31 7 4 19 12 6 355 5 21 20 353 354 79 41 16 8 3 359 4 336 71 36 10 2 22 36 59 49 56 11 13 45 71 69 75 93 88 78 63 48 46 46 48 38 46 50 46 40 34 37 40 35 34 32
160 165 166 155 156 159 164 158 163 172 192 182 179 165 118 55 114 135 121 91 73 104 109 112 103 89 77 53 27 28 25 36 17 8 33 22 14 8 357 8 11 356 12 53 49 20 18 2 1 18 347 1 70 22 23 39 35 283 187 120 170 68 353 20 26 65 68 62 60 54 42 38 38 45 39 37 35 30 30 29 30 32 32 33 35
154 160 165 160 159 163 165 156 168 174 166 134 107 105 99 85 76 90 106 110 136 114 113 120 118 99 73 59 34 38 36 33 34 20 32 33 22 14 359 16 11 8 35 49 49 36 11 5 2 14 22 20 3 27 29 29 36 25 29 77 208 119 73 8 28 38 61 65 66 53 40 37 40 41 42 40 31 28 28 29 28 31 37 34 37
165 167 164 160 163 172 163 158 164 158 147 133 123 117 109 87 84 70 82 89 98 124 125 115 112 106 87 62 28 41 51 39 35 36 30 41 24 23 25 21 23 19 35 43 41 52 12 0 4 19 30 53 354 41 25 41 38 40 91 49 17 43 138 243 15 82 67 72 51 55 49 50 51 44 39 30 25 27 30 28 25 28 39 46 44
168 168 161 155 160 162 151 144 146 133 142 153 140 139 143 140 131 129 136 149 161 176 165 161 154 121 130 120 74 47 56 51 39 39 35 39 35 28 38 33 27 33 37 41 36 35 22 14 358 20 21 13 68 59 24 2 43 38 54 79 124 146 301 293 72 164 345 92 83 51 46 46 62 57 44 31 26 20 20 24 22 27 36 50 52
170 153 150 150 144 142 146 145 146 142 148 158 154 154 152 152 163 167 167 172 169 160 127 117 122 129 124 119 101 53 55 68 43 45 41 41 45 36 42 41 39 45 42 48 39 30 23 14 6 25 30 24 34 66 52 16 8 19 28 64 75 70 85 75 47 14 58 340 56 50 36 34 51 54 43 35 35 30 20 30 31 37 43 43 43
148 139 140 143 143 149 149 148 140 143 154 161 173 176 166 167 172 187 185 181 154 152 137 122 118 121 121 120 95 76 62 61 64 46 50 48 49 43 46 45 44 43 56 52 51 36 31 20 21 27 41 41 42 62 65 40 63 6 14 34 46 68 61 55 57 106 140 64 348 17 44 18 40 56 45 28 31 35 41 33 31 40 50 40 37
148 152 156 153 142 144 143 134 140 149 169 169 178 199 184 172 171 146 110 120 130 133 124 117 122 124 120 117 116 114 82 65 62 65 49 50 46 55 56 51 49 48 54 56 48 46 48 42 31 33 42 41 40 43 69 54 48 43 27 22 40 48 56 49 29 36 65 67 22 30 3 350 14 41 33 22 24 31 45 33 30 42 54 44 39
146 143 143 139 140 143 146 145 153 158 171 173 176 196 178 154 152 147 138 137 131 127 130 135 135 136 133 136 130 120 117 86 63 61 65 52 47 51 56 56 54 52 55 57 53 44 39 44 42 43 42 53 33 43 58 62 55 47 59 56 54 33 48 38 28 22 40 78 125 64 57 18 7 345 24 19 26 36 50 34 31 41 49 44 35
137 141 146 148 150 152 156 156 165 160 169 174 167 179 163 161 158 157 152 149 150 146 143 143 144 142 146 139 123 120 109 109 93 69 69 69 64 56 56 55 59 57 55 53 56 57 40 41 42 46 46 49 43 42 43 44 54 50 48 54 62 67 80 75 45 33 81 73 49 54 65 6 271 25 327 352 26 56 61 45 38 49 49 41 33